Location: Newark
(25.6108°S, 54.5803°W)
Time: 20:56:58
(UTC+00:00)

A-11 Canister half - Pass Details

Date: 31 October 2020
Orbit: 1516 x 1684 km, 47.2° (Epoch: 03 December)

Event Time Altitude Azimuth Distance (km) Brightness Sun altitude
Rises 08:23:32 0° 339° (NNW) 4,673 11.1 -6.5°
Reaches altitude 10° 08:26:50 10° 346° (NNW) 3,682 10.7 -5.8°
Maximum altitude 08:35:13 39° 52° (NE) 2,125 10.1 -4.0°
Drops below altitude 10° 08:43:35 10° 116° (ESE) 3,697 13.0 -2.2°
Sets 08:46:53 0° 123° (ESE) 4,695 13.4 -1.5°
